Olean, NY

8:39 AM EST on December 08, 2019 (GMT -0500)
Cattaraugus County-Olean

Weather History for KOLE - November, 2019

Change the Weather History Date:

Tuesday, November 12, 2019

  Actual Average (WUND) Record (WUND)
Temperature  
Mean Temperature 16 °F -  
Max Temperature 23 °F - - (-1)
Min Temperature 10 °F - - (-1)
Degree Days  
Heating Degree Days 48    
Moisture  
Dew Point 13 °F    
Average Humidity 87    
Maximum Humidity 100    
Minimum Humidity 49    
Precipitation  
Precipitation 0.00 in - - ()
Sea Level Pressure  
Sea Level Pressure 29.99 in    
Wind  
Wind Speed 5 mph ()    
Max Wind Speed 12 mph    
Max Gust Speed 21 mph    
Visibility 5.9 miles    
Events Snow    
Averages and records for this station are not official NWS values.
T = Trace of Precipitation, MM = Missing Value Source: Averaged Metar Reports

Daily Weather History Graph

Daily Weather History Graph

Search for Another Location

Airport or City:

Astronomy

Nov. 12, 2019 Rise Set
Actual Time 6:59 AM EST 4:54 PM EST
Civil Twilight 6:30 AM EST 5:24 PM EST
Nautical Twilight 5:56 AM EST 5:58 PM EST
Astronomical Twilight 5:23 AM EST 6:31 PM EST
Moon 5:21 PM EST (11/12) 6:48 AM EST (11/12)
Length of Visible Light 10h 54m
Length of Day
9h 54m
Full, 100% of the Moon is Illuminated
Nov 12
Full
Nov 19
Last Quarter
Nov 26
New
Dec 4
First Quarter
Dec 12
Full

Hourly Weather History & Observations

Time (EST) Temp. Windchill Dew Point Humidity Pressure Visibility Wind Dir Wind Speed Gust Speed Precip Events Conditions
12:15 AM 23.0 °F 17.0 °F 23.0 °F 100% 29.81 in 0.8 mi North 4.6 mph - N/A Snow Snow
12:35 AM 21.2 °F 16.4 °F 21.2 °F 100% 29.81 in 1.2 mi North 3.5 mph - N/A Snow Light Snow
12:55 AM 21.2 °F 10.9 °F 21.2 °F 100% 29.82 in 1.8 mi North 9.2 mph - N/A Snow Light Snow
1:35 AM 21.2 °F 14.9 °F 21.2 °F 100% 29.82 in 2.0 mi North 4.6 mph - N/A Snow Light Snow
1:55 AM 21.2 °F 11.7 °F 21.2 °F 100% 29.82 in 2.5 mi North 8.1 mph - N/A Snow Light Snow
2:15 AM 19.4 °F 9.5 °F 19.4 °F 100% 29.83 in 2.5 mi NNW 8.1 mph - N/A Snow Light Snow
2:35 AM 19.4 °F 12.8 °F 19.4 °F 100% 29.84 in 2.5 mi NNW 4.6 mph - N/A Snow Light Snow
2:55 AM 19.4 °F 10.4 °F 19.4 °F 100% 29.85 in 2.0 mi NNW 6.9 mph - N/A Snow Light Snow
3:15 AM 19.4 °F 11.5 °F 19.4 °F 100% 29.86 in 1.5 mi North 5.8 mph - N/A Snow Light Snow
3:35 AM 19.4 °F 14.3 °F 19.4 °F 100% 29.86 in 1.8 mi North 3.5 mph - N/A Snow Light Snow
3:55 AM 19.4 °F 11.5 °F 19.4 °F 100% 29.86 in 2.5 mi NNW 5.8 mph - N/A Snow Light Snow
4:15 AM 19.4 °F 14.3 °F 19.4 °F 100% 29.86 in 2.5 mi NNW 3.5 mph - N/A Snow Light Snow
4:35 AM 19.4 °F 14.3 °F 19.4 °F 100% 29.87 in 1.8 mi NNW 3.5 mph - N/A Snow Light Snow
4:55 AM 19.4 °F 11.5 °F 19.4 °F 100% 29.88 in 1.5 mi NNW 5.8 mph - N/A Snow Light Snow
5:15 AM 19.4 °F 12.8 °F 19.4 °F 100% 29.88 in 5.0 mi NW 4.6 mph - N/A Snow Light Snow
5:35 AM 17.6 °F 10.7 °F 17.6 °F 100% 29.89 in 7.0 mi NW 4.6 mph - N/A Snow Light Snow
5:55 AM 17.6 °F - 17.6 °F 100% 29.90 in 7.0 mi Calm Calm - N/A Snow Light Snow
6:15 AM 17.6 °F 8.2 °F 17.6 °F 100% 29.91 in 5.0 mi NNW 6.9 mph - N/A Snow Light Snow
6:35 AM 17.6 °F 12.3 °F 17.6 °F 100% 29.91 in 7.0 mi NW 3.5 mph - N/A Snow Light Snow
7:15 AM 17.6 °F 9.3 °F 17.6 °F 100% 29.94 in 4.0 mi NW 5.8 mph - N/A Snow Light Snow
7:35 AM 17.6 °F 10.7 °F 17.6 °F 100% 29.94 in 4.0 mi NNW 4.6 mph - N/A Snow Light Snow
7:55 AM 17.6 °F 8.2 °F 17.6 °F 100% 29.95 in 5.0 mi NW 6.9 mph - N/A Snow Light Snow
8:15 AM 17.6 °F 10.7 °F 17.6 °F 100% 29.96 in 4.0 mi NW 4.6 mph - N/A Snow Light Snow
8:35 AM 17.6 °F 8.2 °F 17.6 °F 100% 29.97 in 4.0 mi NNW 6.9 mph - N/A Snow Light Snow
8:55 AM 17.6 °F 8.2 °F 17.6 °F 100% 29.97 in 10.0 mi NW 6.9 mph - N/A Snow Light Snow
9:15 AM 17.6 °F 12.3 °F 17.6 °F 100% 29.97 in 3.0 mi NW 3.5 mph - N/A Snow Light Snow
9:35 AM 19.4 °F 10.4 °F 17.6 °F 93% 29.98 in 7.0 mi NNW 6.9 mph - N/A Snow Light Snow
9:55 AM 19.4 °F 11.5 °F 17.6 °F 93% 29.99 in 2.0 mi NW 5.8 mph - N/A Snow Light Snow
10:15 AM 19.4 °F 11.5 °F 17.6 °F 93% 29.99 in 3.0 mi NNW 5.8 mph - N/A Snow Light Snow
10:35 AM 19.4 °F 8.6 °F 17.6 °F 93% 29.99 in 4.0 mi NW 9.2 mph - N/A Snow Light Snow
10:55 AM 21.2 °F 14.9 °F 17.6 °F 86% 29.99 in 5.0 mi WNW 4.6 mph - N/A Snow Light Snow
11:15 AM 21.2 °F 14.9 °F 17.6 °F 86% 29.99 in 5.0 mi WNW 4.6 mph - N/A Snow Light Snow
11:35 AM 21.2 °F 14.9 °F 15.8 °F 80% 30.00 in 7.0 mi NW 4.6 mph - N/A Snow Light Snow
11:55 AM 19.4 °F 10.4 °F 15.8 °F 86% 29.99 in 5.0 mi NW 6.9 mph - N/A Snow Light Snow
12:15 PM 19.4 °F 8.6 °F 14.0 °F 80% 30.00 in 3.0 mi WNW 9.2 mph - N/A Snow Light Snow
12:35 PM 19.4 °F 8.6 °F 15.8 °F 86% 30.00 in 0.5 mi NW 9.2 mph 16.1 mph N/A Snow Light Snow
12:55 PM 19.4 °F 10.4 °F 12.2 °F 74% 30.00 in 7.0 mi WNW 6.9 mph 16.1 mph N/A Snow Light Snow
1:15 PM 19.4 °F 9.5 °F 12.2 °F 74% 30.01 in 3.0 mi NNW 8.1 mph - N/A Snow Light Snow
1:35 PM 17.6 °F 9.3 °F 10.4 °F 73% 30.02 in 10.0 mi NNW 5.8 mph - N/A   Overcast
1:55 PM 19.4 °F 11.5 °F 10.4 °F 68% 30.03 in 10.0 mi WNW 5.8 mph - N/A   Mostly Cloudy
2:15 PM 17.6 °F 5.0 °F 6.8 °F 63% 30.04 in 10.0 mi NW 11.5 mph 17.3 mph N/A   Overcast
2:35 PM 17.6 °F 8.2 °F 3.2 °F 53% 30.04 in 7.0 mi NNW 6.9 mph 20.7 mph N/A   Scattered Clouds
2:55 PM 17.6 °F 8.2 °F 3.2 °F 53% 30.04 in 10.0 mi WNW 6.9 mph - N/A   Scattered Clouds
3:15 PM 17.6 °F 6.4 °F 3.2 °F 53% 30.04 in 10.0 mi NW 9.2 mph - N/A   Clear
3:35 PM 17.6 °F 9.3 °F 3.2 °F 53% 30.05 in 10.0 mi NW 5.8 mph - N/A   Scattered Clouds
3:55 PM 17.6 °F 6.4 °F 1.4 °F 49% 30.06 in 10.0 mi NW 9.2 mph - N/A   Scattered Clouds
4:15 PM 15.8 °F 4.2 °F 1.4 °F 53% 30.06 in 10.0 mi NNW 9.2 mph 16.1 mph N/A   Scattered Clouds
4:35 PM 14.0 °F 3.9 °F 3.2 °F 62% 30.07 in 10.0 mi NW 6.9 mph - N/A   Clear
4:55 PM 14.0 °F 8.2 °F 5.0 °F 67% 30.07 in 10.0 mi NW 3.5 mph - N/A   Clear
5:15 PM 14.0 °F 3.9 °F 5.0 °F 67% 30.08 in 10.0 mi NW 6.9 mph - N/A   Clear
5:35 PM 12.2 °F - 5.0 °F 73% 30.08 in 10.0 mi Calm Calm - N/A   Scattered Clouds
5:55 PM 12.2 °F - 5.0 °F 73% 30.08 in 10.0 mi Calm Calm - N/A   Overcast
6:35 PM 12.2 °F - 8.6 °F 85% 30.09 in 7.0 mi Calm Calm - N/A Snow Light Snow
6:55 PM 12.2 °F - 10.4 °F 92% 30.10 in 3.0 mi Calm Calm - N/A Snow Light Snow
7:15 PM 12.2 °F - 12.2 °F 100% 30.11 in 2.0 mi Calm Calm - N/A Snow Light Snow
7:35 PM 12.2 °F - 12.2 °F 100% 30.11 in 2.5 mi Calm Calm - N/A Snow Light Snow
7:55 PM 12.2 °F - 12.2 °F 100% 30.11 in 10.0 mi Calm Calm - N/A Snow Light Snow
8:15 PM 10.4 °F - 10.4 °F 100% 30.12 in 10.0 mi Calm Calm - N/A   Overcast
8:35 PM 10.4 °F - 10.4 °F 100% 30.12 in 10.0 mi Calm Calm - N/A   Mostly Cloudy
8:55 PM 10.4 °F - 8.6 °F 92% 30.13 in 10.0 mi Calm Calm - N/A   Scattered Clouds
9:15 PM 10.4 °F - 8.6 °F 92% 30.13 in 10.0 mi Calm Calm - N/A   Clear
9:55 PM 10.4 °F - 5.0 °F 79% 30.13 in 10.0 mi Calm Calm - N/A   Scattered Clouds
10:15 PM 10.4 °F - 5.0 °F 79% 30.13 in 10.0 mi Calm Calm - N/A   Clear
10:35 PM 10.4 °F - 5.0 °F 79% 30.13 in 10.0 mi Calm Calm - N/A   Scattered Clouds
10:55 PM 10.4 °F - 5.0 °F 79% 30.13 in 10.0 mi Calm Calm - N/A   Mostly Cloudy
11:15 PM 10.4 °F - 6.8 °F 85% 30.12 in 7.0 mi Calm Calm - N/A   Overcast
11:35 PM 10.4 °F - 8.6 °F 92% 30.12 in 3.0 mi Calm Calm - N/A Snow Light Snow
11:55 PM 10.4 °F - 8.6 °F 92% 30.13 in 3.0 mi Calm Calm - N/A Snow Light Snow